Location: Unspecified
(0.0000°N, 0.0000°E)
Time: 22:12:27
(UTC+00:00)

STARLINK-32496 - Visible Passes

Search period start: 14 December 2025 00:00
Search period end: 24 December 2025 00:00
Orbit: 482 x 484 km, 43.0° (Epoch: 14 December)

Date Brightness Start Highest point End Pass type
(mag) Time Alt. Az. Time Alt. Az. Time Alt. Az.
14 Dec 6.1 20:12:08 10° WSW 20:13:15 18° WSW 20:13:15 18° WSW visible
15 Dec 4.4 19:44:22 10° WSW 19:47:13 42° W 19:47:13 42° W visible
16 Dec 3.7 19:16:36 10° SW 19:20:17 56° NW 19:21:12 42° N visible
17 Dec 3.7 18:48:47 10° SW 18:52:30 59° NW 18:55:11 17° NNE visible
18 Dec 3.7 18:20:57 10° SW 18:24:41 63° NW 18:28:23 10° NE visible
21 Dec 3.3 05:11:50 14° NW 05:14:57 72° SW 05:18:43 10° SE visible
22 Dec 3.2 04:45:40 37° NW 04:47:01 77° SW 04:50:47 10° SE visible
23 Dec 3.5 04:19:27 69° SSE 04:19:27 69° SSE 04:22:49 10° SE visible
